Voltar ao catálogo

SL-8 DEB

AtivoPO
NORAD 24818·DEBRIS·🇷🇺 Russia

Lançado Sep 13, 1977 de Plesetsk Cosmodrome

Loading…

Próximas Passagens (próximas 24 horas)

TLE

AtualizadoSource: Space-Track

Época: Sep 14, 2026, 08:45 UTC

1 24818U 77087C   26257.36522950  .00000309  00000-0  27028-3 0  9990
2 24818  82.9690  26.9754 0033125 164.3915 224.5270 13.82324689461958

Acompanhe SL-8 DEB em tempo real com AllMySat

Download on the App Store